Year,Month,Day,Hour,Minute,Value (Times are PST for temperature in C)
2009,06,16,08,04,13.00
2009,06,16,08,05,13.00
2009,06,16,08,06,13.00
2009,06,16,08,07,13.10
2009,06,16,08,08,13.10
2009,06,16,08,09,13.10
2009,06,16,08,10,13.10
2009,06,16,08,11,13.10
2009,06,16,08,12,13.10
2009,06,16,08,13,13.10
2009,06,16,08,14,13.20
2009,06,16,08,15,13.20
2009,06,16,08,16,13.20
2009,06,16,08,17,13.20
2009,06,16,08,18,13.30
2009,06,16,08,19,13.40
2009,06,16,08,20,13.40
2009,06,16,08,21,13.50
2009,06,16,08,22,13.60
2009,06,16,08,23,13.60
2009,06,16,08,24,13.70
2009,06,16,08,25,13.80
2009,06,16,08,26,13.80
2009,06,16,08,27,13.90
2009,06,16,08,28,14.00
2009,06,16,08,29,14.10
2009,06,16,08,30,14.20
2009,06,16,08,31,14.30
2009,06,16,08,32,14.40
2009,06,16,08,33,14.40
2009,06,16,08,34,14.40
2009,06,16,08,35,14.30
2009,06,16,08,36,14.30
2009,06,16,08,37,14.20
2009,06,16,08,38,14.20
2009,06,16,08,39,14.20
2009,06,16,08,40,14.20
2009,06,16,08,41,14.20
2009,06,16,08,42,14.20
2009,06,16,08,43,14.30
2009,06,16,08,44,14.30
2009,06,16,08,45,14.40
2009,06,16,08,46,14.50
2009,06,16,08,47,14.50
2009,06,16,08,48,14.60
2009,06,16,08,49,14.60
2009,06,16,08,50,14.70
2009,06,16,08,51,14.70
2009,06,16,08,52,14.80
2009,06,16,08,53,14.90
2009,06,16,08,54,15.00
2009,06,16,08,55,15.00
2009,06,16,08,56,15.00
2009,06,16,08,57,15.00
2009,06,16,08,58,15.00
2009,06,16,08,59,15.20
2009,06,16,09,00,15.20
2009,06,16,09,01,15.40
2009,06,16,09,02,15.40
2009,06,16,09,03,15.40
2009,06,16,09,04,15.40
2009,06,16,09,05,15.50
2009,06,16,09,06,15.50
2009,06,16,09,07,15.60
2009,06,16,09,08,15.70
2009,06,16,09,09,15.70
2009,06,16,09,10,15.70
2009,06,16,09,11,15.70
2009,06,16,09,12,15.70
2009,06,16,09,13,15.80
2009,06,16,09,14,15.80
2009,06,16,09,15,15.80
2009,06,16,09,16,15.80
2009,06,16,09,17,15.90
2009,06,16,09,18,15.90
2009,06,16,09,19,15.90
2009,06,16,09,20,16.00
2009,06,16,09,21,16.00
2009,06,16,09,22,16.10
2009,06,16,09,23,16.10
2009,06,16,09,24,16.10
2009,06,16,09,25,16.20
2009,06,16,09,26,16.30
2009,06,16,09,27,16.30
2009,06,16,09,28,16.40
2009,06,16,09,29,16.40
2009,06,16,09,30,16.40
2009,06,16,09,31,16.40
2009,06,16,09,32,16.50
2009,06,16,09,33,16.60
2009,06,16,09,34,16.60
2009,06,16,09,35,16.70
2009,06,16,09,36,16.80
2009,06,16,09,37,16.90
2009,06,16,09,38,17.00
2009,06,16,09,39,17.10
2009,06,16,09,40,17.20
2009,06,16,09,41,17.30
2009,06,16,09,42,17.40
2009,06,16,09,43,17.40
2009,06,16,09,44,17.40
2009,06,16,09,45,17.40
2009,06,16,09,46,17.30
2009,06,16,09,47,17.20
2009,06,16,09,48,17.10
2009,06,16,09,49,16.90
2009,06,16,09,50,16.80
2009,06,16,09,51,16.80
2009,06,16,09,52,16.70
2009,06,16,09,53,16.60
2009,06,16,09,54,16.50
2009,06,16,09,55,16.50
2009,06,16,09,56,16.40
2009,06,16,09,57,16.40
2009,06,16,09,58,16.40
2009,06,16,09,59,16.40
2009,06,16,10,00,16.40
2009,06,16,10,01,16.50
2009,06,16,10,02,16.50
2009,06,16,10,03,16.60
2009,06,16,10,04,16.70
2009,06,16,10,05,16.70
2009,06,16,10,06,16.80
2009,06,16,10,07,16.90
2009,06,16,10,08,17.00
2009,06,16,10,09,17.10
2009,06,16,10,10,17.20
2009,06,16,10,11,17.30
2009,06,16,10,12,17.40
2009,06,16,10,13,17.50
2009,06,16,10,14,17.60
2009,06,16,10,15,17.60
2009,06,16,10,16,17.60
2009,06,16,10,17,17.60
2009,06,16,10,18,17.50
2009,06,16,10,19,17.50
2009,06,16,10,20,17.50
2009,06,16,10,21,17.50
2009,06,16,10,22,17.60
2009,06,16,10,23,17.60
2009,06,16,10,24,17.60
2009,06,16,10,25,17.70
2009,06,16,10,26,17.70
2009,06,16,10,27,17.80
2009,06,16,10,28,17.80
2009,06,16,10,29,17.80
2009,06,16,10,30,17.80
2009,06,16,10,31,17.80
2009,06,16,10,32,17.80
2009,06,16,10,33,17.90
2009,06,16,10,34,17.90
2009,06,16,10,35,17.90
2009,06,16,10,36,18.00
2009,06,16,10,37,18.10
2009,06,16,10,38,18.10
2009,06,16,10,39,18.20
2009,06,16,10,40,18.20
2009,06,16,10,41,18.30
2009,06,16,10,42,18.40
2009,06,16,10,43,18.50
2009,06,16,10,44,18.50
2009,06,16,10,45,18.60
2009,06,16,10,46,18.60
2009,06,16,10,47,18.60
2009,06,16,10,48,18.60
2009,06,16,10,49,18.60
2009,06,16,10,50,18.50
2009,06,16,10,51,18.40
2009,06,16,10,52,18.40
2009,06,16,10,53,18.40
2009,06,16,10,54,18.40
2009,06,16,10,55,18.40
2009,06,16,10,56,18.40
2009,06,16,10,57,18.50
2009,06,16,10,58,18.60
2009,06,16,10,59,18.60
2009,06,16,11,00,18.70
2009,06,16,11,01,18.70
2009,06,16,11,02,18.80
2009,06,16,11,03,18.90
2009,06,16,11,04,19.00
2009,06,16,11,05,19.10
2009,06,16,11,06,19.20
2009,06,16,11,07,19.30
2009,06,16,11,08,19.40
2009,06,16,11,09,19.40
2009,06,16,11,10,19.40
2009,06,16,11,11,19.40
2009,06,16,11,12,19.40
2009,06,16,11,13,19.50
2009,06,16,11,14,19.50
2009,06,16,11,15,19.60
2009,06,16,11,16,19.80
2009,06,16,11,17,19.90
2009,06,16,11,18,20.00
2009,06,16,11,19,20.10
2009,06,16,11,20,20.10
2009,06,16,11,21,20.20
2009,06,16,11,22,20.10
2009,06,16,11,23,20.20
2009,06,16,11,24,20.20
2009,06,16,11,25,20.20
2009,06,16,11,26,20.20
2009,06,16,11,27,20.20
2009,06,16,11,28,20.20
2009,06,16,11,29,20.10
2009,06,16,11,30,20.10
2009,06,16,11,31,20.10
2009,06,16,11,32,20.20
2009,06,16,11,33,20.30
2009,06,16,11,34,20.50
2009,06,16,11,35,20.60
2009,06,16,11,36,20.70
2009,06,16,11,37,20.80
2009,06,16,11,38,20.90
2009,06,16,11,39,21.00
2009,06,16,11,40,21.10
2009,06,16,11,41,21.10
2009,06,16,11,42,21.20
2009,06,16,11,43,21.20
2009,06,16,11,44,21.30
2009,06,16,11,45,21.30
2009,06,16,11,46,21.30
2009,06,16,11,47,21.30
2009,06,16,11,48,21.40
2009,06,16,11,49,21.40
2009,06,16,11,50,21.30
2009,06,16,11,51,21.20
2009,06,16,11,52,21.10
2009,06,16,11,53,21.00
2009,06,16,11,54,20.90
2009,06,16,11,55,20.80
2009,06,16,11,56,20.80
2009,06,16,11,57,20.80
2009,06,16,11,58,20.70
2009,06,16,11,59,20.70
2009,06,16,12,00,20.70
2009,06,16,12,01,20.70
2009,06,16,12,02,20.70
2009,06,16,12,03,20.60
2009,06,16,12,04,20.60
2009,06,16,12,05,20.50
2009,06,16,12,06,20.50
2009,06,16,12,07,20.40
2009,06,16,12,08,20.40
2009,06,16,12,09,20.40
2009,06,16,12,10,20.40
2009,06,16,12,11,20.40
2009,06,16,12,12,20.40
2009,06,16,12,13,20.30
2009,06,16,12,14,20.30
2009,06,16,12,15,20.20
2009,06,16,12,16,20.20
2009,06,16,12,17,20.20
2009,06,16,12,18,20.20
2009,06,16,12,19,20.20
2009,06,16,12,20,20.20
2009,06,16,12,21,20.20
2009,06,16,12,22,20.20
2009,06,16,12,23,20.20
2009,06,16,12,24,20.10
2009,06,16,12,25,20.10
2009,06,16,12,26,20.10
2009,06,16,12,27,20.10
2009,06,16,12,28,20.10
2009,06,16,12,29,20.10
2009,06,16,12,30,20.20
2009,06,16,12,31,20.20
2009,06,16,12,32,20.30
2009,06,16,12,33,20.30
2009,06,16,12,34,20.30
2009,06,16,12,35,20.30
2009,06,16,12,36,20.40
2009,06,16,12,37,20.40
2009,06,16,12,38,20.50
2009,06,16,12,39,20.60
2009,06,16,12,40,20.60
2009,06,16,12,41,20.60
2009,06,16,12,42,20.60
2009,06,16,12,43,20.70
2009,06,16,12,44,20.70
2009,06,16,12,45,20.80
2009,06,16,12,46,20.80
2009,06,16,12,47,20.90
2009,06,16,12,48,21.00
2009,06,16,12,49,21.10
2009,06,16,12,50,21.10
2009,06,16,12,51,21.20
2009,06,16,12,52,21.20
2009,06,16,12,53,21.30
2009,06,16,12,54,21.30
2009,06,16,12,55,21.20
2009,06,16,12,56,21.10
2009,06,16,12,57,21.10
2009,06,16,12,58,21.00
2009,06,16,12,59,21.00
2009,06,16,13,00,21.00
2009,06,16,13,01,21.00
2009,06,16,13,02,21.00
2009,06,16,13,03,21.10
2009,06,16,13,04,21.10
2009,06,16,13,05,21.10
2009,06,16,13,06,21.10
2009,06,16,13,07,21.10
2009,06,16,13,08,21.10
2009,06,16,13,09,21.10
2009,06,16,13,10,21.10
2009,06,16,13,11,21.10
2009,06,16,13,12,21.10
2009,06,16,13,13,21.10
2009,06,16,13,14,21.00
2009,06,16,13,15,21.00
2009,06,16,13,16,21.00
2009,06,16,13,17,21.00
2009,06,16,13,18,21.00
2009,06,16,13,19,21.00
2009,06,16,13,20,21.00
2009,06,16,13,21,21.00
2009,06,16,13,22,21.00
2009,06,16,13,23,21.00
2009,06,16,13,24,21.10
2009,06,16,13,25,21.10
2009,06,16,13,26,21.00
2009,06,16,13,27,20.90
2009,06,16,13,28,20.90
2009,06,16,13,29,20.90
2009,06,16,13,30,20.90
2009,06,16,13,31,21.00
2009,06,16,13,32,21.10
2009,06,16,13,33,21.10
2009,06,16,13,34,21.20
2009,06,16,13,35,21.20
2009,06,16,13,36,21.30
2009,06,16,13,37,21.30
2009,06,16,13,38,21.40
2009,06,16,13,39,21.40
2009,06,16,13,40,21.30
2009,06,16,13,41,21.30
2009,06,16,13,42,21.30
2009,06,16,13,43,21.30
2009,06,16,13,44,21.30
2009,06,16,13,45,21.20
2009,06,16,13,46,21.20
2009,06,16,13,47,21.20
2009,06,16,13,48,21.30
2009,06,16,13,49,21.30
2009,06,16,13,50,21.30
2009,06,16,13,51,21.30
2009,06,16,13,52,21.30
2009,06,16,13,53,21.30
2009,06,16,13,54,21.40
2009,06,16,13,55,21.40
2009,06,16,13,56,21.40
2009,06,16,13,57,21.40
2009,06,16,13,58,21.40
2009,06,16,13,59,21.40
2009,06,16,14,00,21.40
2009,06,16,14,01,21.40
2009,06,16,14,02,21.30
2009,06,16,14,03,21.30
2009,06,16,14,04,21.30
2009,06,16,14,05,21.20
2009,06,16,14,06,21.20
2009,06,16,14,07,21.30
2009,06,16,14,08,21.30
2009,06,16,14,09,21.30
2009,06,16,14,10,21.20
2009,06,16,14,11,21.20
2009,06,16,14,12,21.20
2009,06,16,14,13,21.20
2009,06,16,14,14,21.20
2009,06,16,14,15,21.20
2009,06,16,14,16,21.20
2009,06,16,14,17,21.20
2009,06,16,14,18,21.20
2009,06,16,14,19,21.20
2009,06,16,14,20,21.30
2009,06,16,14,21,21.30
2009,06,16,14,22,21.40
2009,06,16,14,23,21.40
2009,06,16,14,24,21.50
2009,06,16,14,25,21.50
2009,06,16,14,26,21.40
2009,06,16,14,27,21.40
2009,06,16,14,28,21.30
2009,06,16,14,29,21.30
2009,06,16,14,30,21.40
2009,06,16,14,31,21.40
2009,06,16,14,32,21.40
2009,06,16,14,33,21.40
2009,06,16,14,34,21.30
2009,06,16,14,35,21.30
2009,06,16,14,36,21.30
2009,06,16,14,37,21.40
2009,06,16,14,38,21.40
2009,06,16,14,39,21.40
2009,06,16,14,40,21.30
2009,06,16,14,41,21.30
2009,06,16,14,42,21.30
2009,06,16,14,43,21.20
2009,06,16,14,44,21.20
2009,06,16,14,45,21.20
2009,06,16,14,46,21.10
2009,06,16,14,47,21.10
2009,06,16,14,48,21.10
2009,06,16,14,49,21.10
2009,06,16,14,50,21.10
2009,06,16,14,51,21.10
2009,06,16,14,52,21.10
2009,06,16,14,53,21.10
2009,06,16,14,54,20.90
2009,06,16,14,55,20.90
2009,06,16,14,56,20.80
2009,06,16,14,57,20.80
2009,06,16,14,58,20.70
2009,06,16,14,59,20.70
2009,06,16,15,00,20.70
2009,06,16,15,01,20.70
2009,06,16,15,02,20.70
2009,06,16,15,03,20.70
2009,06,16,15,04,20.70
2009,06,16,15,05,20.70
2009,06,16,15,06,20.80
2009,06,16,15,07,20.80
2009,06,16,15,08,20.80
2009,06,16,15,09,20.80
2009,06,16,15,10,20.70
2009,06,16,15,11,20.70
2009,06,16,15,12,20.70
2009,06,16,15,13,20.70
2009,06,16,15,14,20.70
2009,06,16,15,15,20.70
2009,06,16,15,16,20.70
2009,06,16,15,17,20.70
2009,06,16,15,18,20.70
2009,06,16,15,19,20.70
2009,06,16,15,20,20.70
2009,06,16,15,21,20.70
2009,06,16,15,22,20.70
2009,06,16,15,23,20.70
2009,06,16,15,24,20.80
2009,06,16,15,25,20.80
2009,06,16,15,26,20.80
2009,06,16,15,27,20.80
2009,06,16,15,28,20.80
2009,06,16,15,29,20.80
2009,06,16,15,30,20.80
2009,06,16,15,31,20.80
2009,06,16,15,32,20.80
2009,06,16,15,33,20.80
2009,06,16,15,34,20.70
2009,06,16,15,35,20.70
2009,06,16,15,36,20.70
2009,06,16,15,37,20.70
2009,06,16,15,38,20.60
2009,06,16,15,39,20.60
2009,06,16,15,40,20.50
2009,06,16,15,41,20.40
2009,06,16,15,42,20.30
2009,06,16,15,43,20.20
2009,06,16,15,44,20.20
2009,06,16,15,45,20.10
2009,06,16,15,46,20.10
2009,06,16,15,47,20.00
2009,06,16,15,48,19.90
2009,06,16,15,49,19.90
2009,06,16,15,50,19.90
2009,06,16,15,51,19.90
2009,06,16,15,52,19.90
2009,06,16,15,53,19.90
2009,06,16,15,54,19.80
2009,06,16,15,55,19.80
2009,06,16,15,56,19.80
2009,06,16,15,57,19.70
2009,06,16,15,58,19.80
2009,06,16,15,59,19.80
2009,06,16,16,00,19.80
2009,06,16,16,01,19.80
2009,06,16,16,02,19.80
2009,06,16,16,03,19.80
2009,06,16,16,04,19.80
2009,06,16,16,05,19.90
2009,06,16,16,06,19.90
2009,06,16,16,07,19.90
2009,06,16,16,08,19.90
2009,06,16,16,09,19.80
2009,06,16,16,10,19.80
2009,06,16,16,11,19.80
2009,06,16,16,12,19.90
2009,06,16,16,13,19.90
2009,06,16,16,14,20.00
2009,06,16,16,15,20.00
2009,06,16,16,16,20.10
2009,06,16,16,17,20.10
2009,06,16,16,18,20.10
2009,06,16,16,19,20.10
2009,06,16,16,20,20.10
2009,06,16,16,21,20.10
2009,06,16,16,22,20.10
2009,06,16,16,23,20.10
2009,06,16,16,24,20.10
2009,06,16,16,25,20.10
2009,06,16,16,26,20.10
2009,06,16,16,27,20.10
2009,06,16,16,28,20.10
2009,06,16,16,29,20.10
2009,06,16,16,30,20.10
2009,06,16,16,31,20.00
2009,06,16,16,32,20.00
2009,06,16,16,33,19.90
2009,06,16,16,34,19.90
2009,06,16,16,35,19.90
2009,06,16,16,36,19.90
2009,06,16,16,37,19.80
2009,06,16,16,38,19.80
2009,06,16,16,39,19.80
2009,06,16,16,40,19.80
2009,06,16,16,41,19.80
2009,06,16,16,42,19.80
2009,06,16,16,43,19.80
2009,06,16,16,44,19.80
2009,06,16,16,45,19.70
2009,06,16,16,46,19.70
2009,06,16,16,47,19.60
2009,06,16,16,48,19.60
2009,06,16,16,49,19.50
2009,06,16,16,50,19.40
2009,06,16,16,51,19.40
2009,06,16,16,52,19.40
2009,06,16,16,53,19.40
2009,06,16,16,54,19.40
2009,06,16,16,55,19.40
2009,06,16,16,56,19.50
2009,06,16,16,57,19.50
2009,06,16,16,58,19.50
2009,06,16,16,59,19.50
2009,06,16,17,00,19.50
2009,06,16,17,01,19.60
2009,06,16,17,02,19.60
2009,06,16,17,03,19.50
2009,06,16,17,04,19.50
2009,06,16,17,05,19.40
2009,06,16,17,06,19.40
2009,06,16,17,07,19.40
2009,06,16,17,08,19.40
2009,06,16,17,09,19.40
2009,06,16,17,10,19.40
2009,06,16,17,11,19.50
2009,06,16,17,12,19.50
2009,06,16,17,13,19.50
2009,06,16,17,14,19.50
2009,06,16,17,15,19.50
2009,06,16,17,16,19.50
2009,06,16,17,17,19.40
2009,06,16,17,18,19.40
2009,06,16,17,19,19.40
2009,06,16,17,20,19.30
2009,06,16,17,21,19.30
2009,06,16,17,22,19.30
2009,06,16,17,23,19.30
2009,06,16,17,24,19.30
2009,06,16,17,25,19.30
2009,06,16,17,26,19.40
2009,06,16,17,27,19.40
2009,06,16,17,28,19.50
2009,06,16,17,29,19.50
2009,06,16,17,30,19.50
2009,06,16,17,31,19.50
2009,06,16,17,32,19.60
2009,06,16,17,33,19.50
2009,06,16,17,34,19.60
2009,06,16,17,35,19.60
2009,06,16,17,36,19.60
2009,06,16,17,37,19.60
2009,06,16,17,38,19.70
2009,06,16,17,39,19.60
2009,06,16,17,40,19.60
2009,06,16,17,41,19.60
2009,06,16,17,42,19.60
2009,06,16,17,43,19.60
2009,06,16,17,44,19.50
2009,06,16,17,45,19.50
2009,06,16,17,46,19.50
2009,06,16,17,47,19.50
2009,06,16,17,48,19.50
2009,06,16,17,49,19.40
2009,06,16,17,50,19.40
2009,06,16,17,51,19.40
2009,06,16,17,52,19.40
2009,06,16,17,53,19.40
2009,06,16,17,54,19.30
2009,06,16,17,55,19.30
2009,06,16,17,56,19.30
2009,06,16,17,57,19.30
2009,06,16,17,58,19.20
2009,06,16,17,59,19.20
2009,06,16,18,00,19.10
2009,06,16,18,01,19.10
2009,06,16,18,02,19.00
2009,06,16,18,03,19.00
2009,06,16,18,04,19.00
2009,06,16,18,05,18.90
2009,06,16,18,06,18.80
2009,06,16,18,07,18.80
2009,06,16,18,08,18.70
2009,06,16,18,09,18.50
2009,06,16,18,10,18.40
2009,06,16,18,11,18.30
2009,06,16,18,12,18.20
2009,06,16,18,13,18.10
2009,06,16,18,14,17.90
2009,06,16,18,15,17.80
2009,06,16,18,16,17.60
2009,06,16,18,17,17.50
2009,06,16,18,18,17.50
2009,06,16,18,19,17.40
2009,06,16,18,20,17.40
2009,06,16,18,21,17.40
2009,06,16,18,22,17.40
2009,06,16,18,23,17.30
2009,06,16,18,24,17.30
2009,06,16,18,25,17.20
2009,06,16,18,26,17.20
2009,06,16,18,27,17.20
2009,06,16,18,28,17.10
2009,06,16,18,29,17.00
2009,06,16,18,30,17.00
2009,06,16,18,31,17.00
2009,06,16,18,32,17.00
2009,06,16,18,33,17.00
2009,06,16,18,34,17.00
2009,06,16,18,35,17.00
2009,06,16,18,36,17.00
2009,06,16,18,37,17.00
2009,06,16,18,38,17.00
2009,06,16,18,39,17.00
2009,06,16,18,40,17.00
